Current weather by "City, St" or "zip code"  
 
Advertise Here

Current Conditions: INDIANAPOLIS, IN

Mostly Cloudy


68.0 F

Last Updated on Aug 4 2020, 6:55 pm EDT
Humidity: 67%
Wind Speed: NW 5.8 mph
Barometer 30.04 in
Dewpoint: 56.7 F
Visibility: 10.00 mi
Precip: --
Heat Index: NA
Wind Chill: NA
Current conditions at:

INDIANAPOLIS, IN (KTYQ)

Lat: 40.03066 Lon: 86.2515

Local Radar Image active severe weather and emergency alerts image image weather storm and storm spotter reports image weather observation monitoring service image
Local
Radar
Active
Alerts
Storm Reports Obs
Monitoring

Sign-up For Email & Text Message Weather Alert Notification Services


Advertise Here

Observation History for INDIANAPOLIS, IN


Time Wind
(mph)
Vis
(mi)
Weather Precip (in) Temperature (F) Relative
Humidity
Wind
Chill
(F)
Heat
Index
(F)
Pressure
Air Dwpt altimeter
(in)
sea level
(mb)
Rmks
6:55 pm EDT NW 5.8 10.00 Mostly Cloudy -- 68.0 56.7 67% NA NA 30.04 M
5:55 pm EDT NW 13.8 G 19.6 10.00 Mostly Cloudy -- 69.0 57.6 66% NA NA 30.05 M
4:55 pm EDT NW 8.1 10.00 Overcast -- 69.0 57.6 67% NA NA 30.04 M
3:55 pm EDT NW 5.8 10.00 Overcast -- 71.0 58.6 66% NA NA 30.04 M
2:55 pm EDT N 11.5 10.00 Partly Cloudy -- 72.0 58.8 64% NA NA 30.03 M
1:55 pm EDT NW 5.8 10.00 Mostly Cloudy -- 71.0 59.5 67% NA NA 30.03 M
12:55 pm EDT NW 6.9 10.00 Partly Cloudy -- 70.0 60.3 71% NA NA 30.03 M
11:55 am EDT N 8.1 10.00 Mostly Cloudy -- 67.0 60.8 80% NA NA 30.03 M
10:55 am EDT N 6.9 10.00 Overcast -- 65.0 59.9 83% NA NA 30.03 M
9:55 am EDT N 8.1 10.00 Partly Cloudy -- 65.0 60.3 84% NA NA 30.02 M
8:55 am EDT NW 10.4 10.00 Overcast -- 62.0 60.8 95% 61 NA 30.01 M
7:55 am EDT N 6.9 7.00 Overcast -- 62.0 60.8 97% 62 NA 30.00 M
6:55 am EDT N 6.9 10.00 Overcast -- 61.0 60.4 98% 60 NA 30.00 M
5:55 am EDT N 4.6 10.00 Overcast -- 61.0 60.3 98% 61 NA 29.98 M
4:55 am EDT NW 5.8 10.00 Overcast -- 61.0 60.3 98% 61 NA 29.97 M
3:55 am EDT NW 5.8 10.00 Overcast -- 61.0 60.1 97% 61 NA 29.98 M
2:55 am EDT N 4.6 10.00 Overcast -- 61.0 60.1 97% 61 NA 29.98 M
1:55 am EDT NW 6.9 10.00 Overcast -- 61.0 59.9 95% 60 NA 29.99 M
12:55 am EDT N 6.9 10.00 Partly Cloudy -- 62.0 60.1 94% 62 NA 30.00 M
11:55 pm EDT N 5.8 10.00 Fair -- 63.0 61.0 93% 63 NA 29.99 M
10:55 pm EDT N 5.8 10.00 Partly Cloudy -- 65.0 62.8 93% NA NA 30.00 M
9:55 pm EDT NW 3.5 10.00 Overcast -- 67.0 66.0 98% NA NA 29.99 M
8:55 pm EDT N 0.0 10.00 Partly Cloudy -- 67.0 65.8 97% NA NA 29.98 M
7:55 pm EDT N 0.0 10.00 Mostly Cloudy -- 67.0 65.7 95% NA NA 29.98 M

Regional Weather Observation


Lafayette, Purdue University Airport, IN (KLAF)

Partly Cloudy
73.0 F

Kokomo, Kokomo Municipal Airport, IN (KOKK)

Mostly Cloudy
71.0 F

Grissom Air Force Base / Peru, IN (KGUS)

Overcast
71.0 F

Logansport/Cass County Airport, IN (KGGP)

Partly Cloudy
70.0 F

Indianapolis, Eagle Creek Airpark, IN (KEYE)

Partly Cloudy
72.0 F

Indianapolis International Airport, IN (KIND)

Mostly Cloudy
71.0 F